パンスターズ彗星

C/2020 U4 ( PanSTARRS )

English version
Home page
Updated on April 24, 2022

---------------------------------------------------------------------

・ プロフィール

発見日 2020年10月22日
発見光度 20.2等
発見者 Pan-STARRS 1 telescope (Haleakala)

・ 写真集

・ 軌道要素

Epoch 2022 Jan. 21.0 TT = JDT 2459600.5
T 2022 Apr. 7.93218 TT                                  Rudenko
q   5.3537024            (2000.0)            P               Q
z  -0.0002700      Peri.   69.52880     +0.61559376     +0.76374673
 +/-0.0000010      Node   120.01450     +0.61324497     -0.61906785
e   1.0014454      Incl.  167.03594     +0.49494943     -0.18288228
From 473 observations 2019 Nov. 9-2022 Jan. 31, mean residual 0".5.

・ 光度変化

        m1 = 0.7 + 5 logΔ + 18.0 log r

---------------------------------------------------------------------

軌道要素はM.P.E.C. 2022-C56に掲載されたものです。
光度グラフはComet for Windowsで作成したものです。

---------------------------------------------------------------------

Copyright(C) Seiichi Yoshida (comet@aerith.net). All rights reserved.